Regional Weather Roundup
Issued by NWS

Home | Current Version | Previous Version | Text Only | Print | Product List | Glossary On
Versions: 1 2 3 4 5 6 7 8 9 10 11 12 13 14 15 16 17 18 19 20 21 22 23 24 25 26 27 28 29 30 31 32 33 34 35 36 37 38 39 40 41 42 43 44 45 46 47 48 49 50
221
ASUS44 KLIX 290711
RWRLA
LOUISIANA WEATHER ROUNDUP
NATIONAL WEATHER SERVICE NEW ORLEANS LA
200 AM CDT WED JUN 29 2016

NOTE: "FAIR" INDICATES FEW OR NO CLOUDS BELOW 12,000 FEET WITH NO
      SIGNIFICANT WEATHER AND/OR OBSTRUCTIONS TO VISIBILITY.
      SKY/WX - SKY CONDITION AND SIGNIFICANT WEATHER.
      TMP - AIR TEMPERATURE.    DP   - DEWPOINT TEMPERATURE.
      RH  - RELATIVE HUMIDITY.  PRES - PRESSURE.
      HX  - HEAT INDEX.         WCI  - WIND CHILL INDEX.

*  THESE STATIONS ARE NOT NWS OR FAA STATIONS AND ARE NOT UNDER
   NWS QUALITY CONTROL.

LAZ040-048-061>063-065-066-069-290800-
SOUTHEAST LOUISIANA

CITY           SKY/WX    TMP DP  RH WIND       PRES   REMARKS
N.O. AUDUBON     N/A     78  76  95 MISG        N/A
N.O. INTL ARPT MOCLDY    77  74  90 NW5       29.95F
N.O. LAKEFRONT CLOUDY    80  75  84 N12       29.96S
N.O. DOWNTOWN* FAIR      77  74  90 CALM      29.96F
RESERVE*       CLOUDY    75  73  94 CALM      29.96F
SLIDELL        CLOUDY    73  73 100 CALM      29.96F
BATON ROUGE    MOCLDY    73  71  93 NW3       29.96F
BOOTHVILLE     PTCLDY    81  75  82 CALM      29.95F
BELLE CHASSE   MOCLDY    76  74  93 CALM      29.95S
BOGALUSA*      FAIR      74  71  88 CALM      29.98F
GALLIANO*      SUNNY     69  67  95 CALM      29.95F
NEW ROADS*     FAIR      72  72  99 CALM      29.96F FOG
GONZALES*      CLOUDY    73  73 100 CALM      29.95S FOG
HAMMOND*       MOCLDY    73  70  88 NE3       29.95F
HOUMA*         PTCLDY    74  74  99 CALM      29.95F
PORT FOURCHON* SUNNY     79  75  89 NW3       29.95F

$$

LAZ041-044-053-054-290800-
SOUTHWEST LOUISIANA

CITY           SKY/WX    TMP DP  RH WIND       PRES   REMARKS
LAKE CHARLES   CLOUDY    77  74  90 N5        29.94F
LAFAYETTE      PTCLDY    73  72  96 NE7       29.95S
PATTERSON      MOCLDY    74  74 100 E5        29.95F
SALT POINT       N/A     75  73  93 CALM      29.94
NEW IBERIA     PTCLDY    74  73  97 N6        29.95S
CHENAULT AIRPK CLOUDY    75  74  95 CALM      29.95F

$$

LAZ027-028-290800-
CENTRAL LOUISIANA

CITY           SKY/WX    TMP DP  RH WIND       PRES   REMARKS
FORT POLK      PTCLDY    73  72  96 E2        29.96S
ALEXANDRIA INT PTCLDY    74  73  97 E3        29.94F
ALEXANDRIA     MOCLDY    75  72  90 CALM      29.95F FOG

$$

LAZ001-002-290800-
NORTHWEST LOUISIANA

CITY           SKY/WX    TMP DP  RH WIND       PRES   REMARKS
SHREVEPORT     PTCLDY    78  74  87 CALM      29.97F
BARKSDALE AFB  CLEAR     76  76 100 CALM      29.97F
DTN SHREVEPORT PTCLDY    78  73  84 CALM      29.98F

$$

LAZ014-016-290800-
NORTHEAST LOUISIANA

CITY           SKY/WX    TMP DP  RH WIND       PRES   REMARKS
MONROE         CLEAR     74  73  97 CALM      29.98F
TALLULAH       CLEAR     73  71  93 CALM      29.96F FOG

$$





USA.gov is the U.S. government's official web portal to all federal, state and local government web resources and services.